Location: Unspecified
(0.0000°N, 0.0000°E)
Time: 19:35:20
(UTC+00:00)

Vanguard 1 - Pass Details

Date: 25 April 2026
Orbit: 654 x 3817 km, 34.2° (Epoch: 18 May)

Event Time Altitude Azimuth Distance (km) Brightness Sun altitude
Rises 03:37:56 0° 315° (NW) 7,636 14.4 -34.0°
Reaches altitude 10° 03:44:05 10° 321° (NW) 6,271 13.9 -32.5°
Maximum altitude 04:00:55 45° 28° (NNE) 2,848 12.5 -28.4°
Drops below altitude 10° 04:10:28 10° 97° (E) 3,691 13.9 -26.1°
Sets 04:13:02 0° 104° (ESE) 4,358 14.3 -25.5°
